TimeMST,TemperatureF,Dew PointF,Humidity,Sea Level PressureIn,VisibilityMPH,Wind Direction,Wind SpeedMPH,Gust SpeedMPH,PrecipitationIn,Events,Conditions,WindDirDegrees,DateUTC
12:56 AM,23.0,17.1,78,30.17,10.0,ENE,10.4,-,N/A,,Clear,70,2012-11-16 07:56:00
1:56 AM,18.1,12.0,77,30.21,10.0,ESE,5.8,-,N/A,,Clear,110,2012-11-16 08:56:00
2:56 AM,21.0,16.2,81,30.17,10.0,Calm,Calm,-,N/A,,Mostly Cloudy,0,2012-11-16 09:56:00
3:56 AM,27.1,23.0,84,30.14,10.0,NE,4.6,-,N/A,,Overcast,40,2012-11-16 10:56:00
4:56 AM,31.1,25.2,79,30.15,10.0,ENE,6.9,-,N/A,,Mostly Cloudy,70,2012-11-16 11:56:00
5:56 AM,31.1,24.1,75,30.14,10.0,ENE,4.6,-,N/A,,Clear,60,2012-11-16 12:56:00
6:56 AM,29.1,24.1,81,30.12,10.0,East,5.8,-,N/A,,Clear,100,2012-11-16 13:56:00
7:56 AM,31.1,26.1,82,30.13,10.0,East,8.1,-,N/A,,Clear,80,2012-11-16 14:56:00
8:56 AM,34.9,25.2,68,30.11,10.0,SSW,10.4,-,N/A,,Partly Cloudy,200,2012-11-16 15:56:00
9:56 AM,41.9,25.2,52,30.06,10.0,SW,9.2,-,0.01,,Partly Cloudy,220,2012-11-16 16:56:00
10:56 AM,43.0,26.1,51,30.06,10.0,SW,10.4,-,0.02,,Partly Cloudy,220,2012-11-16 17:56:00
11:56 AM,45.0,26.1,48,30.05,10.0,WSW,8.1,-,N/A,,Scattered Clouds,240,2012-11-16 18:56:00
12:56 PM,43.0,25.2,49,30.06,10.0,SW,12.7,-,0.06,,Scattered Clouds,220,2012-11-16 19:56:00
1:56 PM,43.0,27.1,54,30.07,10.0,SW,12.7,-,0.06,,Overcast,220,2012-11-16 20:56:00
2:56 PM,41.9,29.1,61,30.06,10.0,SSW,9.2,-,0.01,,Overcast,200,2012-11-16 21:56:00
3:56 PM,39.9,30.0,68,30.05,10.0,SSE,9.2,-,N/A,,Overcast,160,2012-11-16 22:56:00
4:56 PM,37.9,31.1,76,30.04,10.0,SE,5.8,-,N/A,,Mostly Cloudy,140,2012-11-16 23:56:00
5:56 PM,37.9,30.0,73,30.05,10.0,SW,3.5,-,N/A,,Overcast,220,2012-11-17 00:56:00
6:56 PM,36.9,30.0,76,30.07,10.0,South,3.5,-,N/A,,Mostly Cloudy,170,2012-11-17 01:56:00
7:56 PM,37.9,30.0,73,30.05,10.0,SSW,8.1,-,N/A,,Overcast,200,2012-11-17 02:56:00
8:56 PM,37.9,30.0,73,30.04,10.0,SSW,8.1,-,N/A,,Overcast,200,2012-11-17 03:56:00
9:56 PM,38.8,29.1,68,30.01,10.0,SSW,11.5,-,N/A,,Overcast,200,2012-11-17 04:56:00
10:56 PM,37.9,29.1,71,30.02,10.0,SSW,8.1,-,N/A,,Overcast,200,2012-11-17 05:56:00
11:56 PM,36.9,29.1,74,30.02,10.0,SE,4.6,-,N/A,,Overcast,140,2012-11-17 06:56:00